Kosmos-1235

operational
NORAD ID: 12114 Int'l Des: 1980-102 Owner: GUKOSR Country: SU
LEOCIRCULAR

About Kosmos-1235

Description loading...

Live Position

Loading 3D Globe...

Upcoming Passes

Altitude History

Altitude vs Time

uPlot chart will show altitude changes over time

Two-Line Element Set

1 12114U 80102H 25278.54498398 -.00000014 00000-0 15624-4 0 9992
2 12114 73.9980 10.4035 0031744 126.1199 245.9293 12.56228785 53613
Epoch: Oct 5, 2025 • Age: 15 hours

Current Status

Altitude 1484.5 km
Velocity 7.11 km/s
Sub-Earth Point -73.66°S, 165.86°W
Launch Date Dec 23, 1980
Age 44.7 years
Type other

Technical Details

Classification Payload
Mass 60.00 kg
Dry Mass 60.00 kg
Total Mass 60.00 kg
Length 0.80 m
Diameter 0.80 m
Span 0.80 m
Shape Poly
Manufacturer NPOPM
Bus Type Strela-1 11F625
Phase Status In Orbit
Owner/State GUKOSR/SU

Large Constellations

Loading constellations...